Location: Caltech
(34.1382°N, 118.1253°W)
Time: 11:47:51
(UTC-07:00)

Cosmos 1943 Rocket - Visible Passes

Search period start: 30 August 2016 00:00
Search period end: 09 September 2016 00:00
Orbit: 811 x 845 km, 71.0° (Epoch: 29 August)

Date Brightness Start Highest point End Pass type
(mag) Time Alt. Az. Time Alt. Az. Time Alt. Az.
30 Aug 2.9 03:26:12 10° N 03:31:30 51° ENE 03:31:30 51° ENE visible
30 Aug 3.9 05:11:19 10° WNW 05:12:49 14° WNW 05:12:49 14° WNW visible
31 Aug 3.7 03:07:07 10° N 03:10:31 32° NNE 03:10:31 32° NNE visible
31 Aug 4.3 04:51:48 10° NW 04:51:54 10° NW 04:51:54 10° NW visible
01 Sep 4.3 02:48:05 10° N 02:50:15 22° N 02:50:15 22° N visible
02 Sep 4.6 02:29:03 10° N 02:30:20 16° N 02:30:20 16° N visible
03 Sep 4.9 02:10:02 10° N 02:10:39 13° N 02:10:39 13° N visible
04 Sep 5.1 01:51:04 10° N 01:51:08 10° N 01:51:08 10° N visible
